Regional Weather Roundup
Issued by NWS

Home | Current Version | Previous Version | Graphics & Text | Print | Product List | Glossary On
Versions: 1 2 3 4 5 6 7 8 9 10 11 12 13 14 15 16 17 18 19 20 21 22 23 24 25 26 27
000
ASUS45 KBOU 020407
RWRCO

WEATHER ROUNDUP FOR COLORADO
NATIONAL WEATHER SERVICE DENVER/BOULDER CO
900 PM MST THU DEC 01 2016

NOTE: "FAIR" INDICATES FEW OR NO CLOUDS BELOW 12000 FEET WITH NO
SIGNIFICANT WEATHER AND/OR OBSTRUCTIONS TO VISIBILITY.

COZ001>005-013-030-031-020500-
...NORTHWEST COLORADO...

CITY           SKY/WX    TMP DP  RH WIND       PRES   REMARKS
CRAIG          LGT SNOW  24  21  88 CALM      30.02S FOG
HAYDEN         CLOUDY    21  18  86 CALM      30.01R
MEEKER         LGT SNOW  23  21  92 CALM      30.01R FOG
MOUNT WERNER   NOT AVBL
STEAMBOAT SPGS CLOUDY    21  19  94 CALM      30.00S
WALDEN           N/A     18  14  86 SE6       29.97R WCI   9
$$

COZ006>008-011-020500-
...WEST CENTRAL VALLEYS...

CITY           SKY/WX    TMP DP  RH WIND       PRES   REMARKS
GRAND JUNCTION CLOUDY    30  22  72 CALM      30.01S
MONTROSE       CLOUDY    27  18  69 SE7       30.03R WCI  19
EAGLE          CLOUDY    26  20  77 E3        30.02R
RIFLE          CLOUDY    27  22  81 CALM      30.02S
DELTA          NOT AVBL
NUCLA          MOCLDY    28  18  64 E6        30.02R WCI  22
$$

COZ017>023-064>068-020500-
...SOUTHWEST COLORADO...

CITY           SKY/WX    TMP DP  RH WIND       PRES   REMARKS
DURANGO        CLOUDY    23  16  74 CALM      29.97S
CORTEZ         FAIR      20  15  81 E6        29.97S WCI  12
PAGOSA SPRINGS CLOUDY    18  13  82 CALM      29.97S
TELLURIDE      CLOUDY    20  12  72 CALM      29.95S
WOLF CREEK PAS FAIR      10   9  92 W5        29.97S WCI   2
$$

COZ009-010-012-014-032>034-037-058>063-020500-
...CENTRAL COLORADO...

CITY           SKY/WX    TMP DP  RH WIND       PRES   REMARKS
ASPEN          CLOUDY    16  13  88 SW3       29.97R
BUENA VISTA    MOCLDY    22   7  51 CALM      29.95R
COPPER MTN       N/A     12   5  73 MISG      29.89S
BERTHOUD PASS  CLOUDY     5  -8  56 NW5       29.88R WCI  -4
COTTONWOOD PAS FAIR      23   9  54 W6        29.92S WCI  16
GUNNISON       FAIR      14   9  80 N3        29.99R
KREMMLING      LGT SNOW  23  21  93 CALM      30.00R
LEADVILLE      CLOUDY    11   6  81 NE7       29.91R WCI   0
SALIDA         CLOUDY    28   4  36 S6        30.03R WCI  21
SUNLIGHT       CLOUDY   N/A N/A N/A CALM      29.96S
WILKERSON PASS CLOUDY    14   5  67 CALM      29.93S
$$

COZ069>075-020500-
...SAN LUIS VALLEY/SANGRE DE CRISTO MOUNTAINS...

CITY           SKY/WX    TMP DP  RH WIND       PRES   REMARKS
ALAMOSA        FAIR      10   6  84 NW6       29.97R WCI   0
LA VETA PASS   FAIR      18   9  68 NE13G20   29.93S WCI   4
SAGUACHE       CLOUDY    21  10  63 N5        29.98R WCI  15
$$

COZ035-036-038>040-020500-
...NORTHERN COLORADO FRONT RANGE...

CITY           SKY/WX    TMP DP  RH WIND       PRES   REMARKS
DENVER INTL AP MOCLDY    24   9  52 SE8       29.98R WCI  15
DMNS CITY PARK   N/A     28   9  45 NE2       29.99R
AURORA         MOCLDY    28  10  46 SE10      29.98R WCI  19
FRONT RANGE AP MOCLDY    25  10  54 SE6       29.99R WCI  18
ERIE MUNI ARPT MOCLDY    25  11  54 CALM      30.00R
BOULDER MUN AP FAIR      30  10  43 W5        30.00R WCI  25
CENTENNIAL     MOCLDY    26  10  50 SW7       29.97R WCI  18
BROOMFIELD     PTCLDY    30   7  37 NW7       29.99R WCI  23
FORT COLLINS   FAIR      28  10  47 CALM      30.01R
LONGMONT       MOCLDY    28  12  50 W5        30.03R WCI  23
$$

COZ041-046-047-076>085-087-088-020500-
...PIKES PEAK/PALMER DIVIDE AND SOUTHERN FOOTHILLS...

CITY           SKY/WX    TMP DP  RH WIND       PRES   REMARKS
COLO. SPRINGS  MOCLDY    20   1  43 CALM      29.99R
A. F. ACADEMY  MOCLDY    16   4  59 N7        29.97R WCI   6
SCHRIEVER AFB  NOT AVBL
ELLICOTT       CLOUDY   N/A N/A N/A E3        29.98R
FALCON         CLOUDY    19   6  57 CALM      29.99R
FORT CARSON    FAIR      24   5  45 W2        29.98R
LIMON          FAIR      10   4  76 CALM      30.01R
MONUMENT HILL  MOCLDY    19   5  53 S8        29.98R WCI   9
TRINIDAD       FAIR      21   5  50 W8        29.98R WCI  11
$$

COZ042>045-048>051-090-091-020500-
...NORTHEAST COLORADO...

CITY           SKY/WX    TMP DP  RH WIND       PRES   REMARKS
GREELEY ARPT   FAIR      24   9  52 CALM      30.02R
AKRON          FAIR      28  13  53 NW9       30.01R WCI  19
BURLINGTON     FAIR      19   6  57 W7        30.02R WCI  10
WRAY           NOT AVBL
STERLING       FAIR      23  18  80 CALM      30.01R
HOLYOKE        FAIR      21  12  68 W8        30.02R WCI  12
FORT MORGAN    CLOUDY    29  16  59 N9        30.02R WCI  20
$$

COZ086-089-092>099-020500-
...SOUTHEAST COLORADO...

CITY           SKY/WX    TMP DP  RH WIND       PRES   REMARKS
PUEBLO         FAIR      18   9  68 CALM      30.01R
LA JUNTA       FAIR      25  14  63 NE7       30.01R WCI  17
LAMAR          FAIR      22   9  57 CALM      30.02R
SPRINGFIELD      N/A     25   8  48 CALM      30.01R
$$




USA.gov is the U.S. government's official web portal to all federal, state and local government web resources and services.